Regional Weather Roundup
Issued by NWS

Home | Current Version | Previous Version | Graphics & Text | Print | Product List | Glossary On
Versions: 1 2 3 4 5 6 7 8 9 10 11 12 13 14 15 16 17 18 19 20 21 22 23 24 25 26 27 28 29 30 31 32 33 34 35 36 37 38 39 40 41 42 43 44 45 46 47 48 49 50
218
ASUS43 KLMK 250910
RWRKY
KENTUCKY REGIONAL WEATHER ROUNDUP
NATIONAL WEATHER SERVICE LOUISVILLE KY
500 AM EDT THU MAY 25 2017

NOTE "FAIR" INDICATES FEW OR NO CLOUDS BELOW 12,000 FEET
WITH NO SIGNIFICANT WEATHER AND/OR OBSTRUCTIONS TO VISIBILITY.

KYZ001>023-026-027-061>063-070>075-251000-
WESTERN AND SOUTH CENTRAL KENTUCKY

CITY           SKY/WX    TMP DP  RH WIND       PRES   REMARKS
PADUCAH        PTCLDY    56  49  77 W7        29.61R
HENDERSON      CLOUDY    58  56  93 W9        29.55S
OWENSBORO      CLOUDY    59  56  89 W9        29.54R
HOPKINSVILLE   CLOUDY    55  54  97 W9        29.59R
BOWLING GREEN  CLOUDY    57  55  93 SW9       29.55F
GLASGOW        CLOUDY    54  54 100 SW8       29.55R
$$

KYZ024-025-028>034-038-045-046-053-251000-
NORTH CENTRAL KENTUCKY

CITY           SKY/WX    TMP DP  RH WIND       PRES   REMARKS
LOUISVILLE/SDF LGT RAIN  58  56  93 W13       29.46S
LOUISVILLE/LOU LGT RAIN  58  58 100 W8        29.47R
FORT KNOX      CLOUDY    57  55  94 W13G21    29.47S
$$

KYZ035>037-039>044-047>052-055>060-089>105-251000-
NORTHEAST KENTUCKY

CITY           SKY/WX    TMP DP  RH WIND       PRES   REMARKS
LEXINGTON      CLOUDY    56  53  90 SW12      29.46S
COVINGTON      LGT RAIN  58  57  97 SW9       29.39S FOG
FRANKFORT      CLOUDY    58  53  84 SW12      29.44S
$$

KYZ054-064>069-076>088-106>120-251000-
SOUTHEAST KENTUCKY

CITY           SKY/WX    TMP DP  RH WIND       PRES   REMARKS
JACKSON        CLOUDY    55  50  83 CALM      29.50S
LONDON         CLOUDY    53  48  83 S10       29.53S
SOMERSET       CLOUDY    54  50  87 SW7       29.54S
MIDDLESBORO    CLOUDY    52  49  89 CALM      29.56S
MONTICELLO     CLOUDY    55  51  86 W16G23    29.56S
$$





USA.gov is the U.S. government's official web portal to all federal, state and local government web resources and services.